EST,Max TemperatureF,Mean TemperatureF,Min TemperatureF,Max Dew PointF,MeanDew PointF,Min DewpointF,Max Humidity, Mean Humidity, Min Humidity, Max Sea Level PressureIn, Mean Sea Level PressureIn, Min Sea Level PressureIn, Max VisibilityMiles, Mean VisibilityMiles, Min VisibilityMiles, Max Wind SpeedMPH, Mean Wind SpeedMPH, Max Gust SpeedMPH,PrecipitationIn, CloudCover, Events, WindDirDegrees
2011-11-1,61,51,41,49,43,36,93,66,39,30.34,30.24,30.17,10,10,7,20,9,25,0.24,5,Rain,1
2011-11-2,59,49,38,43,39,35,96,72,47,30.42,30.35,30.30,10,10,10,14,5,17,0.00,0,,33
2011-11-3,61,50,38,48,43,37,93,72,51,30.28,30.12,29.95,10,10,10,15,6,18,0.00,2,,232
2011-11-4,58,50,41,50,43,30,100,75,50,30.13,29.95,29.88,10,8,0,30,12,43,0.02,5,Fog-Rain,43
2011-11-5,55,49,42,39,35,28,71,60,49,30.46,30.33,30.13,10,10,10,29,15,37,0.00,5,,48
2011-11-6,58,50,41,46,41,38,100,79,57,30.53,30.46,30.42,10,10,10,10,6,30,0.00,5,,29
2011-11-7,65,52,38,51,43,37,100,76,52,30.41,30.36,30.30,10,10,8,13,3,16,0.00,1,,246
2011-11-8,65,52,39,51,43,39,100,70,40,30.31,30.27,30.22,10,9,0,7,2,9,0.00,2,Fog,305
2011-11-9,67,52,37,57,49,37,100,84,68,30.21,30.12,29.97,10,4,0,9,3,11,0.00,3,Fog,64
2011-11-10,67,57,46,63,54,36,100,86,71,29.96,29.83,29.73,10,6,0,20,8,29,0.01,7,Fog-Rain,358
2011-11-11,50,41,32,34,27,23,78,57,36,30.15,29.94,29.76,10,10,10,26,12,36,0.00,0,,316
2011-11-12,63,47,31,39,32,26,85,56,27,30.23,30.20,30.15,10,10,10,18,8,27,0.00,0,,236
2011-11-13,64,54,43,53,43,34,86,63,39,30.24,30.16,30.09,10,10,10,22,12,27,0.00,0,,223
2011-11-14,74,65,55,55,52,50,86,66,46,30.08,29.99,29.91,10,10,10,22,14,31,0.00,3,,227
2011-11-15,73,64,55,57,55,54,93,75,57,29.97,29.92,29.87,10,10,8,21,9,31,0.00,4,,268
2011-11-16,68,63,57,66,59,55,100,94,87,29.93,29.83,29.73,10,5,0,22,9,27,0.61,8,Fog-Rain,220
2011-11-17,57,48,38,54,44,25,93,79,64,30.22,29.91,29.81,10,7,2,24,9,34,0.52,7,Rain,349
2011-11-18,48,40,31,28,24,21,78,57,36,30.47,30.39,30.23,10,10,10,16,5,21,0.00,0,,318
2011-11-19,59,46,32,52,39,25,93,73,53,30.40,30.35,30.31,10,10,10,18,9,25,0.00,0,,223
2011-11-20,71,61,51,56,52,47,93,77,61,30.31,30.20,30.16,10,10,10,20,9,27,0.00,1,,240
2011-11-21,65,60,55,58,55,53,93,86,78,30.27,30.20,30.12,10,8,5,17,8,21,T,8,,60
2011-11-22,61,58,55,59,56,54,97,91,84,30.27,30.15,29.93,10,9,6,17,9,23,T,6,Rain,130
2011-11-23,69,58,47,63,54,36,100,81,61,30.01,29.76,29.59,10,8,2,26,16,38,0.51,7,Rain,268
2011-11-24,58,48,38,41,35,31,85,63,40,30.28,30.22,30.04,10,10,10,20,9,30,0.00,1,,329
2011-11-25,67,54,41,41,38,34,83,56,29,30.26,30.23,30.21,10,10,10,13,6,17,0.00,0,,276
2011-11-26,65,53,40,49,41,35,89,62,34,30.28,30.24,30.21,10,10,10,10,6,14,0.00,0,,258
2011-11-27,66,56,46,54,51,43,89,76,63,30.18,30.17,30.16,10,10,10,18,11,24,0.00,0,,211
2011-11-28,69,64,59,61,56,53,97,80,63,30.17,30.11,30.01,10,10,10,15,8,21,0.02,7,,181
2011-11-29,53,51,48,60,53,46,97,88,78,29.78,29.76,29.75,10,7,2,21,11,35,0.05,7,Rain,233
2011-11-30,52,46,40,45,36,31,93,72,50,30.06,29.86,29.75,10,10,10,20,10,26,T,4,,292